Temp_Advection
nan nan nan nan nan nan nan nan nan nan nan nan nan nan nan nan nan nan nan nan nan nan nan nan nan nan nan nan nan nan nan nan nan nan nan nan nan nan nan nan nan nan nan nan
nan 0 0 0 -0 -0 0 0 0 -0 -0 -0 -0 -0 -0 -0 -0 -1 -0 0 1 1 0 0 0 -0 -0 -0 -0 -0 -0 -0 -0 -0 -0 -0 -0 0 0 0 -0 -0 -0 nan
nan -0 0 -0 -0 -0 0 0 -0 0 -0 -0 -0 -1 -0 -0 0 0 0 0 1 1 1 0 0 0 -0 -0 -0 -0 -0 -0 -0 -0 -0 -0 0 0 0 0 0 0 0 nan
nan -0 -0 -0 0 0 0 0 -0 -0 -0 0 0 -0 -0 0 0 0 0 0 0 1 0 0 0 0 -0 -0 -0 -0 -0 -0 -0 -0 -0 -0 -0 -0 -0 -0 -0 -0 -0 nan
nan 0 0 0 0 0 0 -0 -0 -0 -0 -0 0 -0 -1 -0 0 0 -0 -0 -0 0 0 0 0 0 0 -0 -0 -0 -0 0 0 -0 -0 -0 -0 -0 -0 -0 -0 -0 -0 nan
nan 0 0 -0 -0 0 -0 -0 -1 -0 -0 0 -0 -0 -0 -0 -0 0 -0 -0 0 0 0 0 0 0 -0 -0 0 0 0 0 0 -0 -0 0 0 -0 -0 -0 -0 -0 -0 nan
nan -0 -0 -0 -0 -0 -0 -0 -0 0 0 -0 -0 0 -1 -0 0 0 -0 0 0 0 0 0 0 0 -0 -0 -0 -0 0 0 0 0 0 0 -0 -0 0 -0 -0 -0 -0 nan
nan -0 0 -0 -0 -0 -0 -0 -0 -0 0 0 -0 -0 -0 0 -0 0 -0 0 0 0 0 0 0 0 -0 -0 -0 -0 -0 0 -0 -0 -0 -0 -0 -0 -0 -0 -0 -0 -0 nan
nan 0 -0 -0 0 -0 -0 -0 -0 -0 0 0 0 -1 -0 0 -0 0 0 0 -0 0 0 0 0 -0 -0 -0 0 -0 -0 -0 -0 -0 -0 -0 -0 -0 -0 -0 -0 -0 -0 nan
nan 0 -0 -0 0 -0 -0 -0 -0 0 0 0 0 -0 -0 -0 -0 0 -0 -1 -1 0 0 0 -0 -0 -0 -0 -0 -0 -0 -0 0 0 0 0 0 -0 -0 -0 -0 -0 -0 nan
nan 0 0 -0 0 0 0 -0 -0 -0 -0 0 -0 0 -0 -0 -0 -0 -0 -0 -0 -0 -0 0 -0 -0 -0 -0 -0 -0 -0 -0 -0 0 0 0 0 0 0 -0 -0 -0 -0 nan
nan -0 0 0 0 -0 -0 0 -0 0 0 -0 0 -1 0 0 -0 -0 -0 -0 -0 0 0 0 0 0 -0 -0 -0 -0 -0 -0 0 0 0 0 0 0 0 -0 -0 -0 -0 nan
nan -0 0 -0 0 -0 0 0 -0 -0 0 -0 0 -0 0 0 -0 -0 -0 -1 -0 0 0 0 0 -0 -0 -0 -0 -0 -0 0 0 0 0 0 0 0 0 0 0 -0 -0 nan
nan -0 0 0 0 -0 0 -0 0 -0 -0 -0 -0 -1 -0 0 -0 -1 -1 -0 0 0 0 0 -0 -0 -0 0 -0 -0 0 0 0 0 0 0 0 0 0 0 0 -0 -0 nan
nan 0 0 -0 0 -0 0 0 0 0 -1 -0 -0 -0 -1 -0 -1 -2 -1 -0 0 0 -0 -0 -0 0 1 0 -0 -0 0 0 0 0 0 0 1 0 0 0 0 0 -0 nan
nan 0 -0 -0 -0 0 -0 0 -0 -0 -0 -0 -0 -1 -1 0 1 -0 -1 -0 -0 -0 0 0 1 0 -0 -0 -0 0 0 1 1 0 0 1 0 0 0 0 0 0 0 nan
nan -0 -0 -0 -0 0 0 -0 -0 -0 -0 -0 -1 -1 0 0 -0 -1 -1 -1 -0 -1 -0 -0 0 0 1 1 1 1 1 1 1 0 1 1 1 1 0 0 0 0 0 nan
nan -0 -0 -0 -0 -0 -0 -0 -0 -0 -1 -0 -1 -1 0 -0 -1 0 1 0 -1 -1 -0 0 0 -0 0 1 1 1 1 1 1 1 1 1 1 1 0 0 0 0 0 nan
nan -0 -0 -0 -0 -1 0 -0 -0 -0 0 -0 -0 -0 -1 -0 -1 -1 0 0 0 -0 -0 -0 0 0 0 0 1 1 1 1 0 0 1 1 1 1 1 0 0 0 0 nan
nan 0 0 0 -0 -0 0 0 -0 -0 -0 -0 -0 -0 -0 -0 0 -0 -2 -0 -0 -0 -0 -0 -0 -0 0 0 1 0 0 1 0 0 1 1 1 1 1 1 0 0 0 nan
nan 0 0 -0 -0 -0 -0 -0 -0 0 0 -0 0 0 1 0 -1 -0 -1 -1 -0 -0 -0 -0 -1 -0 -0 0 0 0 0 0 1 2 2 1 1 1 1 0 0 0 0 nan
nan -0 -0 0 -0 -0 -0 0 -0 0 -0 -0 -1 0 -0 0 -0 -0 -1 -1 -0 -0 -0 -0 -0 -0 -0 -0 -0 0 0 1 1 1 1 1 1 1 0 0 0 0 0 nan
nan -0 -0 -0 -1 -0 -0 -1 -0 1 -0 -0 -1 -1 0 -1 -1 -0 -0 -0 -0 -0 -0 -0 -0 -0 0 -0 -0 -0 0 1 1 1 1 1 1 1 0 0 1 1 0 nan
nan 0 -0 0 -0 -0 -1 -0 -1 -1 -0 -1 -1 -1 -1 -1 -1 -1 -1 -0 -0 -0 -0 -0 -0 -0 0 0 0 0 0 1 1 1 1 1 1 1 0 0 1 1 0 nan
nan -0 0 -0 -1 -1 0 0 -0 -0 -1 -1 -1 -1 -1 -1 -1 -1 -1 -0 -0 -0 -0 -0 -0 -0 0 0 0 0 0 1 1 1 1 1 1 1 0 0 1 0 0 nan
nan nan nan nan nan nan nan nan nan nan nan nan nan nan nan nan nan nan nan nan nan nan nan nan nan nan nan nan nan nan nan nan nan nan nan nan nan nan nan nan nan nan nan nan
Wind_Speed
6 8 4 3 2 3 7 6 5 0 1 1 5 7 11 19 14 22 25 21 19 20 15 12 10 11 13 18 16 15 12 11 11 10 11 13 15 14 11 11 12 12 13 15
7 5 1 3 5 7 6 6 3 2 1 1 5 12 12 8 10 19 24 25 23 21 17 13 9 10 12 13 13 13 10 8 9 12 14 13 13 15 14 11 14 15 12 13
6 2 2 4 6 7 5 5 3 3 3 2 7 8 4 3 4 7 12 16 22 23 18 13 9 9 10 10 12 9 6 6 8 9 11 10 9 8 8 10 10 10 11 10
7 4 5 6 6 3 3 2 3 4 4 2 4 4 6 3 6 3 6 11 17 19 16 13 10 9 7 7 9 7 5 5 6 6 8 11 12 11 13 13 13 10 11 12
3 3 5 7 1 2 3 3 4 3 4 3 1 3 7 3 6 7 12 15 18 17 15 12 10 8 8 6 5 3 3 5 7 7 7 7 8 10 10 10 10 10 11 12
4 1 3 3 3 4 4 5 6 4 3 2 1 3 6 4 5 1 5 19 19 18 15 13 11 9 6 4 2 1 3 5 7 8 8 8 8 8 7 7 8 9 11 12
5 4 3 3 5 4 6 5 3 4 3 5 2 1 10 6 5 3 4 11 19 18 16 14 12 8 8 5 3 2 2 2 4 4 6 6 6 7 7 8 8 8 9 10
4 4 1 1 1 4 3 4 4 5 2 4 2 6 6 3 0 4 6 6 12 17 16 15 11 10 11 9 7 3 1 1 2 3 4 4 6 6 6 6 7 10 11 12
4 5 2 2 1 3 2 0 3 5 2 2 3 7 9 4 6 6 8 9 13 15 14 13 11 12 13 12 10 5 4 4 3 2 3 4 4 5 7 8 9 10 11 12
5 4 1 1 3 3 2 5 3 2 1 4 5 6 5 3 3 6 9 18 15 13 13 12 13 14 16 16 13 9 7 7 6 5 5 6 6 7 8 9 9 10 11 12
4 3 2 2 3 6 2 1 3 3 3 3 3 6 6 5 4 6 8 9 10 11 10 11 12 16 18 18 17 13 10 8 8 8 8 8 8 8 9 10 11 12 13 15
0 4 3 5 1 3 4 5 5 3 3 1 2 7 2 5 5 6 8 7 7 9 10 12 13 17 20 21 19 15 13 11 12 12 11 11 10 10 11 12 13 14 15 16
4 1 2 5 4 2 3 5 4 4 3 5 4 6 1 5 7 11 13 12 10 11 13 15 17 20 21 22 21 18 17 17 16 15 14 13 12 13 13 14 15 15 16 17
3 2 4 5 3 4 4 5 5 6 3 3 7 9 8 8 8 13 17 19 20 19 19 20 21 24 25 25 25 23 22 20 18 18 16 15 15 15 15 16 16 17 18 19
3 1 1 5 8 4 5 6 9 11 10 8 4 9 10 7 8 20 28 28 28 25 23 25 26 26 29 30 30 28 26 23 22 21 19 17 17 17 17 17 18 18 19 20
3 1 1 5 2 6 6 10 11 10 11 16 16 26 20 34 22 18 20 21 24 22 22 25 28 30 31 33 34 32 29 26 25 24 22 18 19 19 19 19 19 19 20 20
2 2 3 5 3 6 7 9 14 5 5 12 14 19 8 11 12 19 25 23 24 27 24 23 23 24 26 31 33 35 31 28 27 26 23 22 21 21 20 19 19 20 21 21
4 3 2 4 5 2 4 3 4 10 8 14 10 13 17 15 27 31 30 27 24 20 19 21 23 24 23 22 27 30 32 30 29 27 25 24 23 22 20 20 20 20 21 20
3 4 1 1 2 7 2 3 5 6 5 6 11 13 19 22 18 13 13 10 9 11 13 16 18 20 20 20 19 23 28 31 31 30 28 26 25 23 21 20 20 20 20 20
4 4 3 1 3 4 3 1 2 2 4 1 5 5 7 8 8 5 21 16 16 15 16 19 20 21 22 20 20 22 24 28 31 28 27 26 25 23 21 21 21 20 20 19
3 1 4 2 4 8 6 4 1 3 4 7 6 12 13 4 15 32 31 28 22 21 19 22 24 22 18 18 20 23 26 29 27 26 25 25 24 22 21 21 21 20 20 19
6 6 4 4 2 6 7 3 3 3 8 22 28 29 28 27 31 29 26 27 26 25 23 24 23 21 18 18 19 21 24 24 25 24 24 24 23 21 21 20 21 21 19 19
3 5 5 9 6 3 4 8 10 18 22 17 28 31 23 31 33 25 31 29 27 25 25 24 22 21 21 22 21 21 19 19 20 22 23 23 22 21 21 20 20 20 18 19
4 6 3 1 1 1 19 13 10 23 24 38 34 30 32 33 28 28 27 25 22 20 21 20 22 23 23 22 22 20 17 17 19 21 21 21 21 20 20 19 19 19 18 19
4 6 4 5 9 15 1 23 32 35 32 28 25 29 30 28 25 26 24 24 24 25 24 24 25 25 24 22 21 19 18 19 20 20 20 20 20 20 19 19 18 19 18 19
8 5 4 4 1 3 21 31 27 30 34 31 31 30 25 23 22 21 26 26 24 25 25 25 24 23 21 20 20 19 20 21 22 21 21 21 20 19 19 19 18 18 18 18
Wind_Direction
34 70 76 70 80 120 121 108 116 88 68 23 266 276 271 266 252 247 246 248 230 229 236 250 274 303 326 330 329 327 329 333 340 341 342 349 1 7 6 359 353 339 340 341
37 77 358 75 80 86 72 97 48 5 51 46 333 285 262 241 243 244 246 242 234 221 228 241 271 303 325 327 331 332 335 341 2 9 10 11 16 24 16 20 22 11 1 3
100 152 31 86 46 80 45 101 139 156 339 40 336 294 285 227 238 251 242 242 229 219 222 236 260 290 321 326 332 337 348 2 18 20 24 40 35 27 8 22 17 9 3 5
71 358 93 72 71 80 88 2 95 59 57 237 21 273 290 256 269 234 223 205 200 208 221 235 256 290 312 314 327 336 3 22 28 30 29 36 39 31 33 30 24 359 344 342
269 48 76 68 40 70 158 71 58 67 77 37 10 71 269 349 280 243 218 212 209 215 226 241 262 285 284 299 323 349 36 35 41 40 45 42 43 38 31 23 15 14 24 23
87 53 60 120 63 70 119 66 43 51 60 18 328 122 280 213 218 255 215 223 220 221 233 248 268 273 246 268 305 122 77 55 51 48 45 48 45 43 26 20 13 12 7 2
5 351 335 91 74 46 67 58 356 356 8 225 323 61 249 257 235 225 246 240 227 228 238 253 269 241 215 223 202 154 99 61 52 43 36 31 32 37 28 18 9 5 3 359
120 334 10 357 96 153 79 131 150 211 225 274 19 234 250 218 76 226 241 243 215 225 239 251 240 223 206 203 186 165 198 254 300 318 352 1 10 11 1 350 348 351 351 350
120 352 298 215 121 121 165 158 152 102 3 315 251 286 296 232 246 241 236 229 228 232 243 246 236 224 206 205 206 233 253 247 251 279 309 324 325 329 333 336 338 339 341 337
193 94 240 197 131 62 141 150 74 5 82 275 284 275 243 316 248 226 241 241 249 247 246 244 235 216 204 206 216 229 241 240 246 262 279 287 305 317 320 323 326 325 323 324
143 103 205 107 192 180 120 171 62 118 140 186 316 274 217 236 228 215 243 253 255 251 251 243 228 208 206 212 219 229 244 247 256 264 269 277 291 298 310 313 313 318 325 330
147 126 170 202 204 173 164 186 153 133 231 137 127 274 290 271 259 265 270 278 269 264 255 242 232 217 216 218 223 231 242 248 251 254 261 271 277 288 297 306 312 315 320 323
179 44 63 355 9 32 202 195 161 128 107 207 149 261 309 309 294 274 274 271 269 266 254 245 234 227 225 223 226 232 238 242 247 253 259 266 276 284 293 300 302 309 315 319
129 146 174 184 188 136 206 194 184 147 148 200 232 284 279 291 281 285 279 278 278 278 265 251 243 238 232 229 229 232 236 242 248 254 258 265 272 278 284 292 298 306 312 315
87 221 161 257 239 231 226 203 188 201 201 201 219 234 268 250 257 278 289 289 292 283 268 253 250 248 242 237 235 236 239 240 246 251 256 264 268 272 278 286 295 300 306 311
13 245 70 285 251 214 257 235 224 222 238 256 268 278 276 278 280 280 283 283 289 287 275 270 268 261 253 246 242 241 242 243 245 250 255 259 262 270 276 284 291 297 304 311
114 110 54 271 353 329 296 230 199 194 214 223 232 249 281 285 274 277 286 288 286 291 289 287 285 276 270 258 250 244 244 245 246 250 253 253 260 269 274 282 290 298 305 310
125 114 120 265 337 343 240 137 158 196 228 218 258 270 274 284 301 302 302 287 285 290 297 295 286 279 280 275 255 249 245 244 247 251 251 251 256 262 266 274 284 293 300 303
151 132 82 94 259 291 124 195 150 182 281 200 226 266 286 304 310 322 349 328 312 306 309 310 301 283 271 267 256 254 246 242 244 246 248 249 255 261 265 272 281 288 296 301
59 60 110 34 300 248 261 347 184 206 330 61 195 271 283 324 322 267 331 305 303 302 307 310 310 297 278 267 257 250 246 242 243 246 247 244 250 258 264 273 280 288 294 300
136 134 186 207 271 287 255 261 182 19 252 347 314 305 307 241 281 303 310 306 301 302 306 311 307 299 299 276 266 258 252 248 251 251 242 241 251 259 264 271 280 287 291 296
174 152 193 168 216 282 191 100 196 231 325 324 319 316 314 314 316 312 312 307 307 303 301 309 304 297 293 287 280 273 266 261 252 242 236 242 252 256 264 273 283 287 291 296
241 190 182 190 216 250 187 252 286 305 311 323 322 320 314 315 315 316 317 311 306 300 301 305 301 296 290 289 284 277 270 257 244 235 237 245 251 256 264 272 280 285 291 297
236 183 229 7 267 225 302 317 349 328 307 312 314 310 306 304 306 311 313 314 313 305 302 302 298 295 291 285 283 279 264 249 240 239 245 249 253 260 267 275 281 285 291 295
218 157 198 263 307 346 216 326 327 325 325 324 314 314 316 311 301 307 307 312 310 307 305 301 297 292 285 278 272 269 259 248 245 248 250 252 256 262 269 277 282 285 291 292
190 196 172 230 287 239 289 313 325 328 328 329 325 314 313 315 312 308 308 310 311 308 308 305 304 298 292 276 266 261 257 252 250 248 249 252 256 261 270 276 280 285 293 295
Height
1500 1511 1524 1517 1518 1520 1523 1526 1530 1532 1530 1532 1532 1530 1523 1520 1521 1520 1518 1519 1520 1521 1523 1523 1523 1523 1522 1520 1517 1514 1512 1511 1509 1508 1506 1503 1500 1499 1497 1495 1494 1493 1492 1490
1511 1523 1519 1518 1518 1520 1524 1530 1535 1533 1530 1532 1532 1526 1516 1515 1512 1512 1513 1513 1515 1517 1520 1521 1521 1521 1520 1518 1516 1514 1512 1510 1508 1506 1504 1502 1500 1499 1497 1495 1494 1493 1492 1490
1517 1521 1518 1518 1523 1523 1532 1533 1533 1538 1533 1534 1536 1523 1512 1509 1508 1507 1507 1508 1511 1514 1517 1519 1520 1519 1518 1516 1515 1513 1511 1509 1507 1505 1504 1503 1501 1500 1498 1495 1494 1494 1492 1490
1521 1521 1521 1524 1527 1528 1530 1532 1532 1533 1541 1552 1541 1544 1515 1509 1508 1506 1506 1507 1509 1512 1515 1516 1517 1517 1516 1515 1513 1511 1510 1508 1506 1505 1504 1502 1501 1498 1496 1494 1494 1493 1492 1490
1530 1525 1525 1528 1529 1527 1534 1532 1534 1536 1544 1550 1541 1559 1517 1512 1507 1504 1504 1505 1507 1510 1513 1514 1514 1514 1513 1513 1512 1511 1509 1508 1506 1505 1503 1502 1500 1498 1497 1496 1495 1493 1491 1489
1525 1525 1526 1527 1529 1529 1531 1535 1541 1547 1551 1564 1543 1549 1521 1511 1503 1498 1499 1502 1505 1507 1509 1511 1511 1511 1510 1510 1510 1509 1509 1507 1506 1505 1503 1502 1500 1498 1498 1497 1495 1493 1491 1489
1530 1531 1528 1528 1531 1532 1535 1546 1575 1564 1568 1556 1547 1547 1516 1500 1499 1498 1499 1500 1502 1504 1506 1507 1507 1507 1508 1508 1508 1508 1507 1506 1505 1504 1503 1502 1501 1499 1498 1497 1496 1494 1491 1488
1551 1554 1531 1530 1531 1535 1538 1544 1568 1558 1563 1559 1547 1540 1508 1497 1497 1497 1497 1497 1499 1501 1502 1502 1503 1504 1505 1506 1506 1506 1505 1505 1504 1504 1503 1502 1500 1499 1498 1497 1495 1493 1490 1488
1542 1544 1531 1530 1530 1532 1540 1549 1545 1561 1563 1551 1552 1526 1501 1496 1496 1496 1496 1496 1496 1496 1498 1499 1500 1502 1503 1504 1505 1505 1504 1503 1503 1503 1502 1500 1499 1497 1497 1496 1494 1492 1490 1488
1529 1540 1531 1530 1530 1533 1534 1539 1552 1561 1559 1549 1546 1536 1517 1499 1494 1494 1494 1493 1494 1495 1496 1496 1498 1499 1501 1501 1502 1502 1501 1501 1501 1500 1500 1498 1498 1497 1495 1494 1492 1490 1488 1486
1524 1530 1533 1530 1533 1535 1539 1541 1545 1550 1555 1559 1547 1518 1501 1496 1492 1492 1492 1491 1491 1492 1493 1493 1494 1495 1497 1498 1498 1498 1499 1499 1499 1499 1498 1496 1495 1493 1492 1491 1489 1487 1486 1484
1522 1531 1543 1533 1530 1530 1532 1536 1541 1551 1549 1553 1554 1526 1494 1494 1493 1492 1490 1489 1489 1489 1490 1491 1491 1492 1493 1494 1495 1495 1496 1496 1496 1495 1494 1493 1492 1491 1490 1488 1487 1485 1483 1481
1522 1530 1549 1538 1535 1532 1532 1533 1535 1541 1544 1546 1553 1517 1494 1492 1492 1491 1490 1489 1488 1488 1488 1488 1488 1488 1489 1490 1491 1492 1492 1491 1490 1490 1490 1489 1489 1488 1487 1486 1484 1483 1481 1479
1520 1529 1527 1535 1522 1527 1530 1529 1532 1532 1552 1539 1529 1511 1494 1491 1491 1487 1486 1485 1485 1483 1483 1482 1482 1481 1482 1483 1483 1484 1485 1486 1486 1486 1485 1485 1485 1484 1483 1482 1481 1480 1477 1475
1522 1527 1532 1528 1526 1525 1522 1521 1526 1528 1521 1524 1509 1513 1493 1489 1486 1483 1481 1480 1477 1474 1474 1474 1474 1474 1474 1475 1477 1477 1478 1480 1481 1481 1481 1481 1482 1481 1480 1479 1478 1476 1474 1472
1524 1528 1530 1534 1522 1525 1525 1520 1519 1520 1517 1513 1510 1498 1485 1480 1480 1478 1475 1473 1470 1467 1467 1466 1467 1467 1467 1467 1468 1470 1472 1473 1474 1475 1476 1477 1476 1477 1477 1476 1475 1473 1471 1468
1525 1529 1535 1531 1524 1525 1522 1505 1507 1507 1505 1502 1507 1480 1480 1477 1476 1473 1468 1468 1466 1464 1463 1461 1460 1459 1459 1459 1461 1462 1465 1467 1468 1469 1471 1471 1472 1473 1474 1473 1471 1470 1467 1464
1528 1530 1538 1539 1528 1522 1489 1490 1492 1496 1492 1491 1487 1480 1476 1476 1473 1468 1463 1461 1459 1458 1457 1456 1454 1453 1452 1452 1452 1455 1457 1460 1462 1464 1466 1466 1466 1465 1465 1465 1464 1462 1461 1459
1523 1529 1537 1543 1539 1506 1487 1491 1493 1491 1482 1481 1482 1479 1477 1474 1472 1466 1463 1460 1457 1456 1454 1452 1449 1446 1445 1445 1446 1447 1449 1452 1453 1455 1457 1459 1461 1461 1461 1459 1458 1457 1456 1454
1527 1528 1535 1539 1527 1499 1485 1485 1486 1486 1489 1479 1480 1478 1476 1473 1472 1464 1461 1459 1457 1455 1453 1450 1447 1443 1441 1441 1441 1441 1442 1444 1445 1448 1449 1452 1453 1454 1455 1457 1455 1453 1451 1449
1528 1531 1534 1536 1534 1511 1490 1487 1486 1486 1490 1479 1479 1476 1473 1473 1469 1460 1457 1454 1453 1450 1448 1446 1443 1440 1438 1436 1436 1436 1437 1437 1441 1443 1445 1447 1448 1450 1451 1450 1451 1448 1446 1444
1520 1529 1529 1529 1531 1516 1484 1487 1486 1485 1479 1478 1475 1472 1468 1465 1460 1456 1453 1450 1448 1445 1443 1441 1438 1436 1435 1433 1432 1432 1431 1433 1434 1436 1439 1441 1443 1444 1444 1444 1445 1444 1442 1440
1514 1505 1510 1510 1497 1482 1483 1482 1482 1480 1478 1476 1472 1468 1463 1459 1455 1452 1448 1444 1441 1439 1437 1435 1432 1430 1430 1429 1428 1426 1426 1426 1428 1431 1433 1435 1436 1438 1438 1438 1438 1438 1436 1435
1500 1498 1501 1496 1482 1482 1480 1478 1480 1479 1475 1470 1467 1462 1458 1453 1449 1446 1443 1440 1436 1434 1432 1429 1427 1425 1424 1423 1423 1423 1423 1424 1425 1428 1430 1431 1432 1433 1434 1433 1433 1433 1431 1430
1495 1495 1493 1491 1480 1477 1475 1476 1476 1471 1468 1463 1460 1457 1452 1448 1444 1441 1438 1436 1433 1431 1428 1425 1421 1418 1417 1417 1417 1417 1419 1420 1422 1424 1426 1427 1428 1428 1429 1428 1428 1427 1427 1424
1486 1485 1489 1486 1482 1483 1476 1473 1472 1466 1461 1457 1452 1445 1445 1443 1440 1437 1434 1431 1429 1425 1423 1419 1416 1413 1411 1411 1412 1412 1414 1415 1416 1417 1418 1420 1421 1422 1422 1422 1423 1421 1420 1419